Location: Unspecified
(0.0000°N, 0.0000°E)
Time: 12:17:36
(UTC+00:00)

N. Korean satellite - Pass Details

Date: 19 June 2021
Orbit: 450 x 500 km, 97.2° (Epoch: 18 June)

Event Time Altitude Azimuth Distance (km) Brightness Sun altitude
Rises 05:07:26 0° 4° (N) 2,556 10.6 -12.4°
Reaches altitude 10° 05:09:31 10° 359° (N) 1,683 9.6 -11.9°
Maximum altitude 05:13:04 55° 281° (W) 601 6.7 -11.1°
Drops below altitude 10° 05:16:40 10° 202° (SSW) 1,702 8.9 -10.2°
Enters shadow 05:17:45 - 200° (SSW) 2,148 9.4 -10.0°
